Jackpot

Texas Poker Multi Jackpot System

Kini Telah hadir Jackpot SUPER ROYAL FLUSH

Kini Telah hadir Jackpot 2000 (khusus table VIP keatas).

Ikutilah global jackpot yang tersedia di system kami, dengan system jackpot terbaru dan pertama di indonesia, anda dapat membeli jackpot dengan harga 100 rupiah saja dan menangkan hadiahnya hingga puluhan juta rupiah.

Jackpot bukanlah suatu keharusan untuk dibeli, namun kami memberikan suatu fitur tambahan untuk member tercinta dari www.katapoker.com.

Terdapat tiga pilihan harga jackpot yang bisa anda beli yaitu :100,500,1000 dan 2000(khusus table VIP Keatas) rupiah.

Hadiah dari Multi jackpot system www.katapoker.com

  1. full house x 10 harga jackpot yang anda beli.
      (contoh:anda membeli 1000 maka:1000 X10 = 10.000)
  2. four of kind x 250 harga jackpot yang anda beli
      (contoh:anda membeli 1000 maka:1000 X250 = 250.000)
  3. Straight flush x 1200
      (contoh:anda membeli 1000 maka:1000 X1200 = 1.200.000)
  4. Royal flush x 10000 harga jackpot yang anda beli
      (contoh:anda membeli 1000 maka:1000 X10000 = 10.000.000)
  5. SUPER ROYAL FLUSH x 30000 harga jackpot yang anda beli
      (contoh:anda membeli 1000 maka:1000 X30000 = 30.000.000)

Kondisi kartu

  1. full house adalah kondisi kartu dimana kartu anda dan kartu tengah dengan total 7 kartu bisa mendapatkan nilai 5 kartu dengan kombinasi 1 tris(three of kind) dan 1 pair, contoh 3 kartu 10 dan 2 kartu 5
  2. Four of kind adalah kondisi kartu dimana kartu anda dan kartu tengah dengan total 7 kartu bisa mendapatkan nilai 5 kartu dengan kombinasi 4 kartu yang sama jumlah dan 1 kartu apapun juga contoh anda mendapatkan 4 buah kartu angka 3 dan 1 kartu apapun.
  3. Staright flush adalah kondisi kartu dimana kartu anda dan kartu tengah dengan total 7 kartu bisa mendapatkan nilai 5 kartu dengan kombinasi seri / staright dengan kembang yang sama contoh : urutan kartu dari angka 5, 6, 7, 8 , 9 10 dengan kembang yg sama misalnya as hati
  4. Royal flush adalah kondisi kartu dimana kartu anda dan kartu tengah dengan total 7 kartu bisa mendapatkan nilai 5 kartu dengan kombinasi seri / staright dengan kembang yang sama tetapi kartu tersebut haruslah dimulai dari 10. contoh 10, Queen, Jack, King dan aces dengan kembang yang sama
  5. Super Royal flush adalah kondisi kartu dimana Kedua kartu anda digabung dengan 3 kartu pertama meja haruslah royal flush. contoh kartu anda 10,Queen kembang sama dan 3 kartu pertama meja adalah Jack, King dan aces dengan kembang yang sama

Demikian adalah penjelasan dari Multi Jackpot www.katapoker.com terima kasih dan selamat bermain salam hoki dari kami

Texas Poker Jackpot Winner

TOP SUPER ROYAL FLUSH
No.TanggalNamaPriceWin
122/10 16:23CA66Super Royal flush6,000,000
222/10 15:30BENCUT94Super Royal flush60,000,000
322/10 15:01LEBOK88Super Royal flush60,000,000
422/10 13:36OKP19Super Royal flush15,000,000
522/10 12:42DEN0XSuper Royal flush6,000,000
TOP ROYAL FLUSH
No.TanggalNamaPriceWin
122/10 18:19HELLOBRARoyal flush5,000,000
222/10 17:51JWXIY8SVGCRoyal flush5,000,000
322/10 17:48TAR1KMANGRoyal flush1,000,000
422/10 17:24MBATAX11Royal flush5,000,000
522/10 17:24CABE9000Royal flush10,000,000
TOP STRAIGHT FLUSH
No.TanggalNamaPriceWin
122/10 18:33AGUS9889Straight Flush600,000
222/10 18:33MULTI88732Straight Flush1,200,000
322/10 18:32SU9XStraight Flush120,000
422/10 18:30TINN12Straight Flush600,000
522/10 18:29MAROOON___Straight Flush240,000
LATEST JACKPOT
No.TanggalNamaPriceWin
122/10 18:38HIDUPINFull House5,000
222/10 18:38JOS_JOS_JOFull House2,000
322/10 18:37G31SHA_Full House1,000
422/10 18:37NJEBORFull House2,000
522/10 18:37DGYSQCAH46Full House1,000
622/10 18:37ROWIKAFull House10,000
722/10 18:37BOS1KENTIRFull House500
822/10 18:37ITOK5758Full House2,000
922/10 18:37WIND12Full House5,000
1022/10 18:37UCOM99Full House2,000
1122/10 18:37REEBET77Full House5,000
1222/10 18:37ANALIS603Full House2,000
1322/10 18:37SHONGYUN1Full House1,000
1422/10 18:37A4RIELFull House1,000
1522/10 18:37A173TFull House2,000
1622/10 18:37GRR33Full House2,000
1722/10 18:37RYYAN99Full House5,000
1822/10 18:37HK5DY5JDKJFull House5,000
1922/10 18:37LIANDJANFull House1,000
2022/10 18:37ASEN6767Full House10,000
2122/10 18:37ABANGIBBOFull House20,000
2222/10 18:37VCXBSVEFBDFull House1,000
2322/10 18:37DIKIN089Full House1,000
2422/10 18:37PANUTANFull House5,000
2522/10 18:37HOKINAN999Full House2,000
2622/10 18:37CUMODFull House1,000
2722/10 18:37URWANJ2WFOFull House1,000
2822/10 18:37RIZQI_AAFull House10,000
2922/10 18:37RHEDO46Full House1,000
3022/10 18:37ARTHURCOFull House10,000
3122/10 18:37B4G0NG45Full House1,000
3222/10 18:37TEMPEKLAHFull House2,000
3322/10 18:37PYREX01Full House1,000
3422/10 18:37RYCESFull House1,000
3522/10 18:37LOGOS49Full House1,000
3622/10 18:37SAMIHOREFull House2,000
3722/10 18:37COKBONFull House2,000
3822/10 18:37ROCKYDEWAFull House1,000
3922/10 18:37MRX00Full House1,000
4022/10 18:37B1X1JAR4QTFour Of A Kind125,000
4122/10 18:37ZHIBRUT205Full House1,000
4222/10 18:37NGECEMETFull House2,000
4322/10 18:37DFS7Full House5,000
4422/10 18:37NDIRIN99Full House20,000
4522/10 18:37SLEM17Full House5,000
4622/10 18:37IKY81Full House2,000
4722/10 18:36NADINE147Full House10,000
4822/10 18:36LED_88Full House10,000
4922/10 18:36KACA_120Full House10,000
5022/10 18:36AMP3RASTAFull House2,000

Domino Multi Jackpot System

Ikutilah global jackpot yang tersedia di system kami, dengan system jackpot terbaru dan pertama di indonesia, anda dapat membeli jackpot dengan harga 100 rupiah saja dan menangkan hadiahnya hingga puluhan juta rupiah.

Jackpot bukanlah suatu keharusan untuk dibeli, namun kami memberikan suatu fitur tambahan untuk member tercinta dari www.katapoker.com.

Terdapat tiga pilihan harga jackpot yang bisa anda beli yaitu :100,500 dan 1000 rupiah.

Hadiah dari Multi jackpot system www.katapoker.com

  1. Murni Kecil x 50 harga jackpot yang anda beli.
      (contoh:anda membeli 1000 maka:1000 X 50 = 50.000)
  2. Murni Besar x 50 harga jackpot yang anda beli
      (contoh:anda membeli 1000 maka:1000 X 50 = 50.000)
  3. BALAK x 100 harga jackpot yang anda beli
      (contoh:anda membeli 1000 maka:1000 X 100 = 100.000)
  4. ENAM DEWA x 6666 harga jackpot yang anda beli
      (contoh:anda membeli 1000 maka:1000 X 6666 = 6.666.000)

Demikian adalah penjelasan dari Multi Jackpot www.katapoker.com terima kasih dan selamat bermain salam hoki dari kami

Domino Jackpot Winner

TOP ENAM DEWA
No.TanggalNamaPriceWin
122/10 15:49WEATERBONDmurni enam6,666,000
222/10 14:21DEBBITKUmurni enam6,666,000
322/10 12:25E059B08Fmurni enam666,600
422/10 11:52YADAH88murni enam3,333,000
522/10 06:49KENTUT277murni enam666,600
TOP BALAK
No.TanggalNamaPriceWin
122/10 18:37ZZZXXX2525balak100,000
222/10 18:32DOC99Xbalak10,000
322/10 18:29S4RA4S7balak100,000
422/10 18:28SALEHO27balak50,000
522/10 18:21ANJIANG3balak50,000
LATEST JACKPOT
No.TanggalNamaPriceWin
122/10 18:37FE44DE8Fmurni besar5,000
222/10 18:37ZZZXXX2525balak100,000
322/10 18:37SUCI85lucky9925,000
422/10 18:37LAGILO26murni kecil5,000
522/10 18:36JINXANANGmurni kecil5,000
622/10 18:36SERANG20murni kecil5,000
722/10 18:35QQYUNIARTImurni kecil5,000
822/10 18:35CONTE891murni besar25,000
922/10 18:34SOOOOT21murni kecil25,000
1022/10 18:34IKIIKI01lucky9925,000
1122/10 18:32DOC99Xbalak10,000
1222/10 18:32HADI1112murni besar50,000
1322/10 18:32SIOHOALUmurni kecil50,000
1422/10 18:31BNGST10murni besar5,000
1522/10 18:31FORTUNA090murni besar25,000
1622/10 18:31AZO22murni kecil5,000
1722/10 18:30SUGEHBGTlucky992,500
1822/10 18:30LOGAN1308murni besar25,000
1922/10 18:30TAPA66murni besar50,000
2022/10 18:30PAERENmurni besar50,000
2122/10 18:29S4RA4S7balak100,000
2222/10 18:28MAUTAUYAmurni besar50,000
2322/10 18:28OLIV46murni kecil50,000
2422/10 18:28SALEHO27balak50,000
2522/10 18:28CKPOT99murni kecil5,000
2622/10 18:27DEO66murni kecil25,000
2722/10 18:27MZGUSAYmurni kecil5,000
2822/10 18:26FETZUmurni besar50,000
2922/10 18:25KASIMAMA30murni kecil50,000
3022/10 18:25RAJATEJAWAmurni besar50,000
3122/10 18:25PANDAWA_66murni besar50,000
3222/10 18:25DARKUM78murni kecil50,000
3322/10 18:24CHESBELmurni besar50,000
3422/10 18:24HASZULlucky992,500
3522/10 18:23BEXS27murni besar50,000
3622/10 18:22SNIPER8Omurni besar25,000
3722/10 18:22OLIV46murni kecil25,000
3822/10 18:21JEFREY21murni kecil25,000
3922/10 18:21ANJIANG3balak50,000
4022/10 18:21IYE73murni kecil50,000
4122/10 18:20ADIDOENK39murni kecil50,000
4222/10 18:20ADADA11murni besar5,000
4322/10 18:20UZDWP2MLFmurni kecil25,000
4422/10 18:19H4NS3Mbalak100,000
4522/10 18:19MUDUK94murni kecil50,000
4622/10 18:19SALEHO27murni kecil25,000
4722/10 18:18SANGDEWA88murni besar5,000
4822/10 18:18ZUKY005murni kecil25,000
4922/10 18:18LABOLONG999murni kecil50,000
5022/10 18:18SUKARINIANmurni kecil50,000

Ceme Multi Jackpot System

Jackpot dilihat dari gabungan kartu pemain dengan kartu bandar. Bandar harus membeli jackpot sebanyak jumlah player yang sedang duduk. Sebagai contoh bila terdapat 3 pemain duduk bermain, dan bandar memutuskan untuk membeli jackpot Rp 1.000, maka pada periode tersebut bandar akan membeli jackpot sebanyak 3xRp1.000 = Rp3.000.

Jackpot bukanlah suatu keharusan untuk dibeli, namun kami memberikan suatu fitur tambahan untuk member tercinta dari www.katapoker.com.

Terdapat tiga pilihan harga jackpot yang bisa anda beli yaitu :100,500 dan 1000 rupiah.

Hadiah dari Multi jackpot system www.katapoker.com

  1. Murni Kecil x 50 harga jackpot yang anda beli.
      (contoh:anda membeli 1000 maka:1000 X 50 = 50.000)
  2. Murni Besar x 50 harga jackpot yang anda beli
      (contoh:anda membeli 1000 maka:1000 X 50 = 50.000)
  3. BALAK x 200 harga jackpot yang anda beli
      (contoh:anda membeli 1000 maka:1000 X 200 = 200.000)
  4. ENAM DEWA x 6666 harga jackpot yang anda beli
      (contoh:anda membeli 1000 maka:1000 X 6666 = 6.666.000)

Demikian adalah penjelasan dari Multi Jackpot www.katapoker.com terima kasih dan selamat bermain salam hoki dari kami

Ceme Jackpot Winner

TOP ENAM DEWA
No.TanggalNamaPriceWin
122/10 18:13SKYN3T83murni enam6,666,000
222/10 18:13SMPRUL30murni enam666,600
322/10 17:10POW6BDFI5Dmurni enam6,666,000
422/10 16:33MANYOLE400murni enam6,666,000
522/10 16:33JACKPOTYUmurni enam6,666,000
TOP BALAK
No.TanggalNamaPriceWin
122/10 18:37JEMBLE2balak200,000
222/10 18:34B2262DGbalak200,000
322/10 18:34UYAB127balak100,000
422/10 18:33HAHEHOH456balak100,000
522/10 18:33DE33537Cbalak100,000
LATEST JACKPOT
No.TanggalNamaPriceWin
122/10 18:37TEMMY234murni besar50,000
222/10 18:37UMANG92murni kecil5,000
322/10 18:37XPEPEKXmurni kecil5,000
422/10 18:37XPEPEKXmurni kecil5,000
522/10 18:37JEMBLE2balak200,000
622/10 18:37ANYOEmurni kecil50,000
722/10 18:37RANDYMSSSmurni kecil25,000
822/10 18:37COYZHmurni kecil5,000
922/10 18:36RATUOKEmurni kecil50,000
1022/10 18:36BIGSEX30murni kecil25,000
1122/10 18:36UMANG92murni kecil5,000
1222/10 18:36AAJO87murni kecil50,000
1322/10 18:36FITA44murni besar50,000
1422/10 18:35JOEBERmurni kecil50,000
1522/10 18:35UCENG09murni kecil50,000
1622/10 18:35TEMMY234murni kecil50,000
1722/10 18:35CHRIST08murni kecil50,000
1822/10 18:34B2262DGbalak200,000
1922/10 18:34PICKYmurni besar5,000
2022/10 18:34OBLAK901murni kecil25,000
2122/10 18:34NASUDIN666murni besar5,000
2222/10 18:34ROBOH1murni kecil5,000
2322/10 18:34SKYN3T83murni kecil50,000
2422/10 18:34CIMPERSAEmurni kecil50,000
2522/10 18:34AJAZ_murni kecil25,000
2622/10 18:34UYAB127balak100,000
2722/10 18:33H3CKmurni kecil25,000
2822/10 18:33MALAS5577murni besar50,000
2922/10 18:33LV8K7XLKQWmurni besar25,000
3022/10 18:33SAIDAH077murni kecil5,000
3122/10 18:33COLI212murni kecil50,000
3222/10 18:33HAHEHOH456balak100,000
3322/10 18:33DE33537Cbalak100,000
3422/10 18:33OQI16YYZNKmurni kecil5,000
3522/10 18:32P4NCON6murni besar25,000
3622/10 18:32SBO19230murni besar25,000
3722/10 18:32TREVOMGbalak200,000
3822/10 18:32KHENDHELmurni kecil50,000
3922/10 18:32D31Pmurni kecil50,000
4022/10 18:32LAHLUbalak200,000
4122/10 18:31HENDRYY778balak200,000
4222/10 18:31CABERAWIT5murni besar25,000
4322/10 18:31IGYbalak100,000
4422/10 18:30AAJO87murni kecil50,000
4522/10 18:30SELALUREJEmurni kecil50,000
4622/10 18:30AZK466balak200,000
4722/10 18:30IDKNDY1304balak200,000
4822/10 18:30JADAAHHbalak200,000
4922/10 18:30R4YO0murni besar25,000
5022/10 18:29B2262DGmurni besar50,000